| time (UTC) | temp C | wind direction | speed KPH | gust KPH | rain 1hr cm | rain 24hr cm | rain mn cm | humidity % | barometer mb |
| 20260504012057 | 13 | 194 | 0.0 | 4.8 | 0.00 | 0.00 | 0.00 | 51 | 1000.9 |
| 20260504011112 | 15 | 194 | 1.6 | 4.8 | 0.00 | 0.00 | 0.00 | 48 | 1000.9 |
| 20260504010106 | 15 | 194 | 0.0 | 3.2 | 0.00 | 0.00 | 0.00 | 47 | 1000.8 |
| 20260504003937 | 17 | 194 | 0.0 | 4.8 | 0.00 | 0.00 | 0.00 | 36 | 1000.8 |
| 20260504002909 | 18 | 195 | 0.0 | 3.2 | 0.00 | 0.00 | 0.00 | 32 | 1000.8 |
| 20260504000800 | 20 | 124 | 1.6 | 11.3 | 0.00 | 0.00 | 0.00 | 26 | 1000.5 |
| 20260503235730 | 20 | 232 | 1.6 | 11.3 | 0.00 | 0.00 | 0.00 | 24 | 1000.4 |
| 20260503234723 | 21 | 225 | 1.6 | 11.3 | 0.00 | 0.00 | 0.00 | 22 | 1000.4 |
| 20260503233701 | 21 | 210 | 1.6 | 11.3 | 0.00 | 0.00 | 0.00 | 23 | 1000.2 |
| 20260503232652 | 22 | 229 | 1.6 | 8.0 | 0.00 | 0.00 | 0.00 | 21 | 1000.3 |
| 20260503231651 | 22 | 222 | 3.2 | 14.5 | 0.00 | 0.00 | 0.00 | 21 | 1000.3 |
| 20260503230715 | 22 | 258 | 1.6 | 14.5 | 0.00 | 0.00 | 0.00 | 22 | 1000.3 |
| 20260503225655 | 22 | 254 | 3.2 | 14.5 | 0.00 | 0.00 | 0.00 | 23 | 1000.1 |
| 20260503224639 | 23 | 315 | 4.8 | 14.5 | 0.00 | 0.00 | 0.00 | 19 | 1000.3 |
| 20260503223645 | 23 | 305 | 3.2 | 11.3 | 0.00 | 0.00 | 0.00 | 16 | 1000.2 |
| 20260503222645 | 23 | 261 | 3.2 | 9.7 | 0.00 | 0.00 | 0.00 | 18 | 1000.3 |
| 20260503221657 | 23 | 224 | 3.2 | 16.1 | 0.00 | 0.00 | 0.00 | 18 | 1000.3 |
| 20260503220622 | 23 | 273 | 4.8 | 20.9 | 0.00 | 0.00 | 0.00 | 19 | 1000.3 |
| 20260503215638 | 23 | 266 | 4.8 | 20.9 | 0.00 | 0.00 | 0.00 | 22 | 1000.2 |
| 20260503214629 | 23 | 0 | 4.8 | 17.7 | 0.00 | 0.00 | 0.00 | 21 | 1000.1 |
| 20260503213631 | 23 | 252 | 4.8 | 14.5 | 0.00 | 0.00 | 0.00 | 22 | 1000.1 |
| 20260503212604 | 23 | 333 | 3.2 | 14.5 | 0.00 | 0.00 | 0.00 | 21 | 1000.1 |
| 20260503211550 | 23 | 288 | 3.2 | 11.3 | 0.00 | 0.00 | 0.00 | 21 | 1000.0 |
| 20260503202115 | 22 | 278 | 6.4 | 14.5 | 0.00 | 0.00 | 0.00 | 26 | 1000.6 |
| 20260503201053 | 22 | 323 | 6.4 | 14.5 | 0.00 | 0.00 | 0.00 | 24 | 1000.7 |
| 20260503193823 | 21 | 338 | 8.0 | 20.9 | 0.00 | 0.00 | 0.00 | 26 | 1001.0 |
| 20260503192805 | 21 | 249 | 6.4 | 16.1 | 0.00 | 0.00 | 0.00 | 27 | 1001.1 |
| 20260503191800 | 21 | 54 | 4.8 | 14.5 | 0.00 | 0.00 | 0.00 | 27 | 1001.4 |
| 20260503185635 | 20 | 277 | 6.4 | 20.9 | 0.00 | 0.00 | 0.00 | 28 | 1001.6 |
| 20260503184602 | 20 | 138 | 6.4 | 17.7 | 0.00 | 0.00 | 0.00 | 27 | 1001.7 |
| 20260503183616 | 20 | 268 | 4.8 | 17.7 | 0.00 | 0.00 | 0.00 | 27 | 1001.7 |
| 20260503181505 | 20 | 281 | 3.2 | 12.9 | 0.00 | 0.00 | 0.00 | 28 | 1001.8 |
| 20260503175301 | 19 | 325 | 8.0 | 24.1 | 0.00 | 0.00 | 0.00 | 31 | 1002.2 |
| 20260503174308 | 19 | 30 | 4.8 | 17.7 | 0.00 | 0.00 | 0.00 | 31 | 1002.2 |
| 20260503173307 | 19 | 153 | 4.8 | 14.5 | 0.00 | 0.00 | 0.00 | 28 | 1002.4 |
| 20260503172325 | 18 | 326 | 4.8 | 14.5 | 0.00 | 0.00 | 0.00 | 30 | 1002.6 |
| 20260503171254 | 18 | 64 | 4.8 | 22.5 | 0.00 | 0.00 | 0.00 | 31 | 1002.7 |
| 20260503170305 | 18 | 335 | 9.7 | 22.5 | 0.00 | 0.00 | 0.00 | 32 | 1002.9 |
| 20260503160131 | 16 | 20 | 9.7 | 20.9 | 0.00 | 0.00 | 0.00 | 33 | 1003.3 |
| 20260503100253 | 8 | 74 | 0.0 | 1.6 | 0.00 | 0.00 | 0.00 | 60 | 1007.2 |
| 20260503080642 | 9 | 304 | 0.0 | 0.0 | 0.00 | 0.00 | 0.00 | 50 | 1008.0 |
| 20260503072555 | 10 | 228 | 0.0 | 6.4 | 0.00 | 0.00 | 0.00 | 42 | 1008.1 |
| 20260503071544 | 10 | 136 | 0.0 | 0.0 | 0.00 | 0.00 | 0.00 | 47 | 1008.3 |
| 20260503070543 | 10 | 141 | 1.6 | 8.0 | 0.00 | 0.00 | 0.00 | 46 | 1008.2 |
| 20260503054409 | 6 | 219 | 0.0 | 3.2 | 0.00 | 0.00 | 0.00 | 56 | 1009.0 |
| 20260503053337 | 6 | 220 | 0.0 | 0.0 | 0.00 | 0.00 | 0.00 | 58 | 1009.1 |
| 20260503052305 | 6 | 220 | 0.0 | 0.0 | 0.00 | 0.00 | 0.00 | 58 | 1009.2 |
| 20260503051240 | 6 | 220 | 0.0 | 0.0 | 0.00 | 0.00 | 0.00 | 58 | 1009.3 |
| 20260503050213 | 6 | 220 | 0.0 | 0.0 | 0.00 | 0.00 | 0.00 | 58 | 1009.3 |
| 20260503045154 | 6 | 219 | 0.0 | 0.0 | 0.00 | 0.00 | 0.00 | 58 | 1009.3 |
| 20260503044136 | 6 | 219 | 0.0 | 0.0 | 0.00 | 0.00 | 0.00 | 59 | 1009.4 |
| 20260503043159 | 6 | 219 | 0.0 | 0.0 | 0.00 | 0.00 | 0.00 | 60 | 1009.5 |
| 20260503042159 | 6 | 219 | 0.0 | 0.0 | 0.00 | 0.00 | 0.00 | 60 | 1009.6 |
| 20260503041153 | 6 | 219 | 0.0 | 0.0 | 0.00 | 0.00 | 0.00 | 59 | 1009.7 |
| 20260503040133 | 6 | 219 | 0.0 | 0.0 | 0.00 | 0.00 | 0.00 | 59 | 1009.8 |
| 20260503033959 | 6 | 219 | 0.0 | 0.0 | 0.00 | 0.00 | 0.00 | 59 | 1010.0 |
| 20260503033011 | 6 | 223 | 0.0 | 0.0 | 0.00 | 0.00 | 0.00 | 59 | 1010.0 |
| 20260503032003 | 6 | 223 | 0.0 | 1.6 | 0.00 | 0.00 | 0.00 | 58 | 1010.2 |
| 20260503030929 | 7 | 223 | 0.0 | 1.6 | 0.00 | 0.00 | 0.00 | 57 | 1010.2 |
| 20260503025940 | 7 | 223 | 0.0 | 4.8 | 0.00 | 0.00 | 0.00 | 56 | 1010.4 |
| 20260503024918 | 7 | 223 | 0.0 | 4.8 | 0.00 | 0.00 | 0.00 | 55 | 1010.4 |
| 20260503023912 | 7 | 223 | 0.0 | 4.8 | 0.00 | 0.00 | 0.00 | 54 | 1010.3 |
| 20260503022854 | 8 | 223 | 0.0 | 4.8 | 0.00 | 0.00 | 0.00 | 55 | 1010.4 |
| 20260503021903 | 8 | 223 | 0.0 | 3.2 | 0.00 | 0.00 | 0.00 | 53 | 1010.4 |
| 20260503020921 | 8 | 223 | 0.0 | 1.6 | 0.00 | 0.00 | 0.00 | 54 | 1010.4 |
| 20260503015916 | 8 | 223 | 0.0 | 1.6 | 0.00 | 0.00 | 0.00 | 54 | 1010.4 |
| 20260503014902 | 8 | 223 | 0.0 | 1.6 | 0.00 | 0.00 | 0.00 | 54 | 1010.3 |
| 20260503013852 | 9 | 223 | 0.0 | 1.6 | 0.00 | 0.00 | 0.00 | 52 | 1010.4 |
| 20260503012915 | 10 | 223 | 0.0 | 1.6 | 0.00 | 0.00 | 0.00 | 53 | 1010.3 |